Location: Colebrook
(42.0017°N, 73.0973°W)
Time: 11:17:10
(UTC-04:00)

Altair - All Passes

Search period start: 25 October 2021 00:00
Search period end: 04 November 2021 00:00
Orbit: 1502 x 1682 km, 47.2° (Epoch: 24 October)

Date Brightness Start Highest point End Pass type
(mag) Time Alt. Az. Time Alt. Az. Time Alt. Az.
25 Oct - 02:10:42 10° SSW 02:19:16 45° SE 02:28:05 10° ENE visible
25 Oct - 04:14:10 10° WSW 04:23:32 82° NNW 04:33:17 10° ENE visible
25 Oct - 06:19:38 10° W 06:29:04 65° N 06:38:54 10° E visible
25 Oct - 08:24:46 10° WNW 08:34:31 89° SSW 08:44:35 10° ESE daylight
25 Oct - 10:29:57 10° WNW 10:38:40 37° SW 10:47:35 10° SSE daylight
26 Oct - 01:45:48 10° SSW 01:54:11 41° SE 02:02:48 10° ENE visible
26 Oct - 03:48:59 10° WSW 03:58:20 85° NNW 04:08:03 10° ENE visible
26 Oct - 05:54:24 10° W 06:03:48 64° N 06:13:35 10° E visible
26 Oct - 07:59:35 10° WNW 08:09:17 88° NNE 08:19:21 10° ESE daylight
26 Oct - 10:04:41 10° WNW 10:13:33 40° SW 10:22:40 10° SSE daylight
27 Oct - 01:20:55 10° SSW 01:29:06 38° SE 01:37:30 10° ENE visible
27 Oct - 03:23:50 10° WSW 03:33:08 89° NNW 03:42:48 10° ENE visible
27 Oct - 05:29:10 10° W 05:38:32 64° N 05:48:18 10° E visible
27 Oct - 07:34:24 10° WNW 07:44:04 85° NNE 07:54:06 10° ESE daylight
27 Oct - 09:39:25 10° WNW 09:48:26 44° SW 09:57:43 10° SSE daylight
28 Oct - 00:56:04 10° SSW 01:04:03 35° SE 01:12:11 10° ENE visible
28 Oct - 02:58:41 10° WSW 03:07:57 88° SSE 03:17:34 10° ENE visible
28 Oct - 05:03:56 10° W 05:13:18 65° N 05:23:00 10° E visible
28 Oct - 07:09:13 10° WNW 07:18:50 82° NNE 07:28:50 10° ESE daylight
28 Oct - 09:14:11 10° WNW 09:23:18 47° SW 09:32:43 10° SSE daylight
28 Oct - 11:23:21 10° WSW 11:26:19 12° WSW 11:29:18 10° SW daylight
29 Oct - 00:31:15 10° S 00:38:59 32° SE 00:46:51 10° ENE visible
29 Oct - 02:33:32 10° WSW 02:42:47 84° SSE 02:52:21 10° ENE visible
29 Oct - 04:38:44 10° W 04:48:01 65° N 04:57:42 10° ENE visible
29 Oct - 06:44:02 10° WNW 06:53:37 79° NNE 07:03:34 10° ESE visible
29 Oct - 08:48:57 10° WNW 08:58:10 51° SW 09:07:42 10° SSE daylight
29 Oct - 10:57:06 10° W 11:01:17 13° WSW 11:05:32 10° SSW daylight
30 Oct - 00:06:29 10° S 00:13:56 29° SE 00:21:30 10° ENE night (unlit)
30 Oct - 02:08:25 10° SW 02:17:37 80° SSE 02:27:07 10° ENE visible
30 Oct - 04:13:30 10° W 04:22:47 66° N 04:32:25 10° ENE visible
30 Oct - 06:18:50 10° WNW 06:28:23 76° NNE 06:38:18 10° ESE visible
30 Oct - 08:23:44 10° WNW 08:33:02 54° SW 08:42:39 10° SE daylight
30 Oct - 10:31:11 10° W 10:36:15 15° WSW 10:41:23 10° SSW daylight
30 Oct - 23:41:46 10° S 23:48:54 26° SE 23:56:07 10° ENE night (unlit)
31 Oct - 01:43:18 10° SW 01:52:28 76° SSE 02:01:54 10° ENE visible
31 Oct - 03:48:16 10° W 03:57:31 66° N 04:07:08 10° ENE visible
31 Oct - 05:53:40 10° WNW 06:03:09 74° NNE 06:13:01 10° ESE visible
31 Oct - 07:58:33 10° WNW 08:07:53 58° SW 08:17:34 10° SE daylight
31 Oct - 10:05:28 10° W 10:11:12 17° SW 10:17:03 10° SSW daylight
31 Oct - 23:17:06 10° S 23:23:52 24° SE 23:30:42 10° E night (unlit)
01 Nov - 01:18:12 10° SW 01:27:19 72° SSE 01:36:41 10° ENE visible
01 Nov - 03:23:02 10° W 03:32:17 67° N 03:41:52 10° ENE visible
01 Nov - 05:28:28 10° WNW 05:37:55 72° NNE 05:47:44 10° E visible
01 Nov - 07:33:21 10° WNW 07:42:45 62° SW 07:52:28 10° SE daylight
01 Nov - 09:39:52 10° W 09:46:09 19° SW 09:52:35 10° SSW daylight
01 Nov - 22:52:29 10° S 22:58:50 21° SE 23:05:14 10° E night (unlit)
02 Nov - 00:53:08 10° SW 01:02:11 68° SE 01:11:28 10° ENE visible
02 Nov - 02:57:49 10° W 03:07:03 69° NNW 03:16:36 10° ENE visible
02 Nov - 05:03:16 10° WNW 05:12:40 70° NNE 05:22:26 10° E visible
02 Nov - 07:08:10 10° WNW 07:17:34 66° SW 07:27:21 10° SE daylight
02 Nov - 09:14:21 10° W 09:21:06 22° SW 09:28:00 10° S daylight
02 Nov - 22:27:58 10° SSE 22:33:50 19° SE 22:39:42 10° E night (unlit)
03 Nov - 00:28:04 10° SW 00:37:04 63° SE 00:46:15 10° ENE visible
03 Nov - 02:32:36 10° W 02:41:49 70° NNW 02:51:20 10° ENE visible
03 Nov - 04:38:05 10° WNW 04:47:25 69° N 04:57:08 10° E visible
03 Nov - 06:42:59 10° WNW 06:52:25 70° SW 07:02:13 10° SE visible
03 Nov - 08:48:53 10° W 08:56:02 24° SW 09:03:21 10° S daylight
03 Nov - 22:03:32 10° SSE 22:08:49 17° SE 22:14:06 10° E night (unlit)
